Year,Month,Day,Hour,Minute,Value (Times are PST for temperature in C)
2014,08,23,00,00,12.60
2014,08,23,00,01,12.50
2014,08,23,00,02,12.50
2014,08,23,00,03,12.50
2014,08,23,00,04,12.50
2014,08,23,00,05,12.50
2014,08,23,00,06,12.50
2014,08,23,00,07,12.50
2014,08,23,00,08,12.50
2014,08,23,00,09,12.50
2014,08,23,00,10,12.50
2014,08,23,00,11,12.50
2014,08,23,00,12,12.50
2014,08,23,00,13,12.50
2014,08,23,00,14,12.50
2014,08,23,00,15,12.50
2014,08,23,00,16,12.60
2014,08,23,00,17,12.60
2014,08,23,00,18,12.60
2014,08,23,00,19,12.60
2014,08,23,00,20,12.60
2014,08,23,00,21,12.60
2014,08,23,00,22,12.60
2014,08,23,00,23,12.60
2014,08,23,00,24,12.60
2014,08,23,00,25,12.60
2014,08,23,00,26,12.50
2014,08,23,00,27,12.50
2014,08,23,00,28,12.50
2014,08,23,00,29,12.50
2014,08,23,00,30,12.50
2014,08,23,00,31,12.50
2014,08,23,00,32,12.50
2014,08,23,00,33,12.50
2014,08,23,00,34,12.40
2014,08,23,00,35,12.40
2014,08,23,00,36,12.40
2014,08,23,00,37,12.40
2014,08,23,00,38,12.40
2014,08,23,00,39,12.40
2014,08,23,00,40,12.30
2014,08,23,00,41,12.30
2014,08,23,00,42,12.30
2014,08,23,00,43,12.30
2014,08,23,00,44,12.30
2014,08,23,00,45,12.20
2014,08,23,00,46,12.20
2014,08,23,00,47,12.20
2014,08,23,00,48,12.20
2014,08,23,00,49,12.20
2014,08,23,00,50,12.10
2014,08,23,00,51,12.10
2014,08,23,00,52,12.10
2014,08,23,00,53,12.10
2014,08,23,00,54,12.10
2014,08,23,00,55,12.00
2014,08,23,00,56,12.00
2014,08,23,00,57,12.00
2014,08,23,00,58,11.90
2014,08,23,00,59,11.90
2014,08,23,01,00,11.90
2014,08,23,01,01,11.90
2014,08,23,01,02,11.90
2014,08,23,01,03,11.90
2014,08,23,01,04,11.90
2014,08,23,01,05,11.80
2014,08,23,01,06,11.80
2014,08,23,01,07,11.80
2014,08,23,01,08,11.80
2014,08,23,01,09,11.80
2014,08,23,01,10,11.80
2014,08,23,01,11,11.80
2014,08,23,01,12,11.80
2014,08,23,01,13,11.80
2014,08,23,01,14,11.70
2014,08,23,01,15,11.70
2014,08,23,01,16,11.70
2014,08,23,01,17,11.70
2014,08,23,01,18,11.70
2014,08,23,01,19,11.70
2014,08,23,01,20,11.70
2014,08,23,01,21,11.70
2014,08,23,01,22,11.70
2014,08,23,01,23,11.60
2014,08,23,01,24,11.60
2014,08,23,01,25,11.60
2014,08,23,01,26,11.60
2014,08,23,01,27,11.60
2014,08,23,01,28,11.60
2014,08,23,01,29,11.60
2014,08,23,01,30,11.50
2014,08,23,01,31,11.50
2014,08,23,01,32,11.50
2014,08,23,01,33,11.40
2014,08,23,01,34,11.40
2014,08,23,01,35,11.40
2014,08,23,01,36,11.40
2014,08,23,01,37,11.40
2014,08,23,01,38,11.40
2014,08,23,01,39,11.30
2014,08,23,01,40,11.30
2014,08,23,01,41,11.30
2014,08,23,01,42,11.30
2014,08,23,01,43,11.30
2014,08,23,01,44,11.30
2014,08,23,01,45,11.30
2014,08,23,01,46,11.30
2014,08,23,01,47,11.30
2014,08,23,01,48,11.30
2014,08,23,01,49,11.30
2014,08,23,01,50,11.30
2014,08,23,01,51,11.30
2014,08,23,01,52,11.20
2014,08,23,01,53,11.20
2014,08,23,01,54,11.20
2014,08,23,01,55,11.20
2014,08,23,01,56,11.20
2014,08,23,01,57,11.20
2014,08,23,01,58,11.20
2014,08,23,01,59,11.20
2014,08,23,02,00,11.20
2014,08,23,02,01,11.20
2014,08,23,02,02,11.10
2014,08,23,02,03,11.10
2014,08,23,02,04,11.10
2014,08,23,02,05,11.10
2014,08,23,02,06,11.10
2014,08,23,02,07,11.10
2014,08,23,02,08,11.10
2014,08,23,02,09,11.10
2014,08,23,02,10,11.10
2014,08,23,02,11,11.10
2014,08,23,02,12,11.10
2014,08,23,02,13,11.10
2014,08,23,02,14,11.10
2014,08,23,02,15,11.10
2014,08,23,02,16,11.10
2014,08,23,02,17,11.10
2014,08,23,02,18,11.10
2014,08,23,02,19,11.00
2014,08,23,02,20,11.10
2014,08,23,02,21,11.10
2014,08,23,02,22,11.10
2014,08,23,02,23,11.10
2014,08,23,02,24,11.10
2014,08,23,02,25,11.10
2014,08,23,02,26,11.10
2014,08,23,02,27,11.10
2014,08,23,02,28,11.10
2014,08,23,02,29,11.10
2014,08,23,02,30,11.10
2014,08,23,02,31,11.10
2014,08,23,02,32,11.10
2014,08,23,02,33,11.10
2014,08,23,02,34,11.20
2014,08,23,02,35,11.20
2014,08,23,02,36,11.20
2014,08,23,02,37,11.20
2014,08,23,02,38,11.20
2014,08,23,02,39,11.20
2014,08,23,02,40,11.20
2014,08,23,02,41,11.20
2014,08,23,02,42,11.10
2014,08,23,02,43,11.10
2014,08,23,02,44,11.10
2014,08,23,02,45,11.10
2014,08,23,02,46,11.10
2014,08,23,02,47,11.10
2014,08,23,02,48,11.10
2014,08,23,02,49,11.00
2014,08,23,02,50,11.00
2014,08,23,02,51,11.00
2014,08,23,02,52,11.00
2014,08,23,02,53,10.90
2014,08,23,02,54,10.90
2014,08,23,02,55,10.90
2014,08,23,02,56,10.90
2014,08,23,02,57,10.90
2014,08,23,02,58,10.90
2014,08,23,02,59,10.90
2014,08,23,03,00,10.90
2014,08,23,03,01,10.90
2014,08,23,03,02,10.90
2014,08,23,03,03,10.90
2014,08,23,03,04,10.90
2014,08,23,03,05,10.90
2014,08,23,03,06,10.90
2014,08,23,03,07,10.80
2014,08,23,03,08,10.80
2014,08,23,03,09,10.80
2014,08,23,03,10,10.80
2014,08,23,03,11,10.80
2014,08,23,03,12,10.80
2014,08,23,03,13,10.80
2014,08,23,03,14,10.80
2014,08,23,03,15,10.80
2014,08,23,03,16,10.70
2014,08,23,03,17,10.70
2014,08,23,03,18,10.70
2014,08,23,03,19,10.70
2014,08,23,03,20,10.70
2014,08,23,03,21,10.70
2014,08,23,03,22,10.80
2014,08,23,03,23,10.80
2014,08,23,03,24,10.80
2014,08,23,03,25,10.80
2014,08,23,03,26,10.80
2014,08,23,03,27,10.80
2014,08,23,03,28,10.80
2014,08,23,03,29,10.80
2014,08,23,03,30,10.80
2014,08,23,03,31,10.70
2014,08,23,03,32,10.70
2014,08,23,03,33,10.70
2014,08,23,03,34,10.70
2014,08,23,03,35,10.70
2014,08,23,03,36,10.70
2014,08,23,03,37,10.70
2014,08,23,03,38,10.70
2014,08,23,03,39,10.70
2014,08,23,03,40,10.70
2014,08,23,03,41,10.70
2014,08,23,03,42,10.60
2014,08,23,03,43,10.60
2014,08,23,03,44,10.60
2014,08,23,03,45,10.60
2014,08,23,03,46,10.60
2014,08,23,03,47,10.60
2014,08,23,03,48,10.60
2014,08,23,03,49,10.60
2014,08,23,03,50,10.60
2014,08,23,03,51,10.60
2014,08,23,03,52,10.60
2014,08,23,03,53,10.60
2014,08,23,03,54,10.60
2014,08,23,03,55,10.60
2014,08,23,03,56,10.50
2014,08,23,03,57,10.60
2014,08,23,03,58,10.60
2014,08,23,03,59,10.50
2014,08,23,04,00,10.50
2014,08,23,04,01,10.50
2014,08,23,04,02,10.50
2014,08,23,04,03,10.50
2014,08,23,04,04,10.50
2014,08,23,04,05,10.50
2014,08,23,04,06,10.50
2014,08,23,04,07,10.50
2014,08,23,04,08,10.50
2014,08,23,04,09,10.50
2014,08,23,04,10,10.40
2014,08,23,04,11,10.40
2014,08,23,04,12,10.40
2014,08,23,04,13,10.40
2014,08,23,04,14,10.40
2014,08,23,04,15,10.40
2014,08,23,04,16,10.40
2014,08,23,04,17,10.40
2014,08,23,04,18,10.40
2014,08,23,04,19,10.40
2014,08,23,04,20,10.40
2014,08,23,04,21,10.40
2014,08,23,04,22,10.30
2014,08,23,04,23,10.30
2014,08,23,04,24,10.30
2014,08,23,04,25,10.30
2014,08,23,04,26,10.30
2014,08,23,04,27,10.30
2014,08,23,04,28,10.30
2014,08,23,04,29,10.30
2014,08,23,04,30,10.30
2014,08,23,04,31,10.30
2014,08,23,04,32,10.30
2014,08,23,04,33,10.30
2014,08,23,04,34,10.30
2014,08,23,04,35,10.30
2014,08,23,04,36,10.30
2014,08,23,04,37,10.30
2014,08,23,04,38,10.30
2014,08,23,04,39,10.30
2014,08,23,04,40,10.30
2014,08,23,04,41,10.20
2014,08,23,04,42,10.20
2014,08,23,04,43,10.20
2014,08,23,04,44,10.20
2014,08,23,04,45,10.20
2014,08,23,04,46,10.20
2014,08,23,04,47,10.20
2014,08,23,04,48,10.20
2014,08,23,04,49,10.20
2014,08,23,04,50,10.20
2014,08,23,04,51,10.10
2014,08,23,04,52,10.10
2014,08,23,04,53,10.10
2014,08,23,04,54,10.10
2014,08,23,04,55,10.10
2014,08,23,04,56,10.10
2014,08,23,04,57,10.10
2014,08,23,04,58,10.10
2014,08,23,04,59,10.10
2014,08,23,05,00,10.10
2014,08,23,05,01,10.10
2014,08,23,05,02,10.10
2014,08,23,05,03,10.10
2014,08,23,05,04,10.10
2014,08,23,05,05,10.10
2014,08,23,05,06,10.10
2014,08,23,05,07,10.10
2014,08,23,05,08,10.10
2014,08,23,05,09,10.10
2014,08,23,05,10,10.10
2014,08,23,05,11,10.10
2014,08,23,05,12,10.10
2014,08,23,05,13,10.10
2014,08,23,05,14,10.10
2014,08,23,05,15,10.10
2014,08,23,05,16,10.10
2014,08,23,05,17,10.10
2014,08,23,05,18,10.10
2014,08,23,05,19,10.10
2014,08,23,05,20,10.00
2014,08,23,05,21,10.00
2014,08,23,05,22,10.00
2014,08,23,05,23,10.00
2014,08,23,05,24,10.00
2014,08,23,05,25,9.90
2014,08,23,05,26,9.90
2014,08,23,05,27,9.90
2014,08,23,05,28,9.90
2014,08,23,05,29,9.90
2014,08,23,05,30,9.90
2014,08,23,05,31,9.90
2014,08,23,05,32,9.90
2014,08,23,05,33,9.90
2014,08,23,05,34,9.90
2014,08,23,05,35,9.90
2014,08,23,05,36,9.80
2014,08,23,05,37,9.80
2014,08,23,05,38,9.80
2014,08,23,05,39,9.80
2014,08,23,05,40,9.80
2014,08,23,05,41,9.80
2014,08,23,05,42,9.80
2014,08,23,05,43,9.80
2014,08,23,05,44,9.80
2014,08,23,05,45,9.80
2014,08,23,05,46,9.80
2014,08,23,05,47,9.70
2014,08,23,05,48,9.70
2014,08,23,05,49,9.70
2014,08,23,05,50,9.70
2014,08,23,05,51,9.70
2014,08,23,05,52,9.70
2014,08,23,05,53,9.70
2014,08,23,05,54,9.70
2014,08,23,05,55,9.70
2014,08,23,05,56,9.80
2014,08,23,05,57,9.80
2014,08,23,05,58,9.80
2014,08,23,05,59,9.80
2014,08,23,06,00,9.80
2014,08,23,06,01,9.80
2014,08,23,06,02,9.80
2014,08,23,06,03,9.80
2014,08,23,06,04,9.80
2014,08,23,06,05,9.80
2014,08,23,06,06,9.80
2014,08,23,06,07,9.80
2014,08,23,06,08,9.80
2014,08,23,06,09,9.80
2014,08,23,06,10,9.80
2014,08,23,06,11,9.80
2014,08,23,06,12,9.80
2014,08,23,06,13,9.80
2014,08,23,06,14,9.80
2014,08,23,06,15,9.80
2014,08,23,06,16,9.80
2014,08,23,06,17,9.80
2014,08,23,06,18,9.90
2014,08,23,06,19,9.90
2014,08,23,06,20,9.90
2014,08,23,06,21,9.90
2014,08,23,06,22,9.90
2014,08,23,06,23,9.90
2014,08,23,06,24,9.90
2014,08,23,06,25,9.90
2014,08,23,06,26,9.90
2014,08,23,06,27,9.90
2014,08,23,06,28,10.00
2014,08,23,06,29,10.00
2014,08,23,06,30,10.00
2014,08,23,06,31,10.00
2014,08,23,06,32,10.00
2014,08,23,06,33,10.00
2014,08,23,06,34,10.00
2014,08,23,06,35,10.10
2014,08,23,06,36,10.10
2014,08,23,06,37,10.10
2014,08,23,06,38,10.10
2014,08,23,06,39,10.10
2014,08,23,06,40,10.10
2014,08,23,06,41,10.10
2014,08,23,06,42,10.10
2014,08,23,06,43,10.10
2014,08,23,06,44,10.10
2014,08,23,06,45,10.10
2014,08,23,06,46,10.20
2014,08,23,06,47,10.20
2014,08,23,06,48,10.20
2014,08,23,06,49,10.20
2014,08,23,06,50,10.20
2014,08,23,06,51,10.20
2014,08,23,06,52,10.20
2014,08,23,06,53,10.20
2014,08,23,06,54,10.20
2014,08,23,06,55,10.30
2014,08,23,06,56,10.30
2014,08,23,06,57,10.30
2014,08,23,06,58,10.30
2014,08,23,06,59,10.30
2014,08,23,07,00,10.40
2014,08,23,07,01,10.40
2014,08,23,07,02,10.40
2014,08,23,07,03,10.40
2014,08,23,07,04,10.40
2014,08,23,07,05,10.40
2014,08,23,07,06,10.50
2014,08,23,07,07,10.50
2014,08,23,07,08,10.50
2014,08,23,07,09,10.50
2014,08,23,07,10,10.60
2014,08,23,07,11,10.60
2014,08,23,07,12,10.60
2014,08,23,07,13,10.60
2014,08,23,07,14,10.60
2014,08,23,07,15,10.70
2014,08,23,07,16,10.70
2014,08,23,07,17,10.70
2014,08,23,07,18,10.70
2014,08,23,07,19,10.70
2014,08,23,07,20,10.70
2014,08,23,07,21,10.70
2014,08,23,07,22,10.70
2014,08,23,07,23,10.70
2014,08,23,07,24,10.80
2014,08,23,07,25,10.80
2014,08,23,07,26,10.80
2014,08,23,07,27,10.80
2014,08,23,07,28,10.80
2014,08,23,07,29,10.80
2014,08,23,07,30,10.90
2014,08,23,07,31,10.90
2014,08,23,07,32,10.90
2014,08,23,07,33,10.90
2014,08,23,07,34,10.90
2014,08,23,07,35,10.90
2014,08,23,07,36,11.00
2014,08,23,07,37,11.00
2014,08,23,07,38,11.10
2014,08,23,07,39,11.10
2014,08,23,07,40,11.10
2014,08,23,07,41,11.10
2014,08,23,07,42,11.10
2014,08,23,07,43,11.20
2014,08,23,07,44,11.20
2014,08,23,07,45,11.20
2014,08,23,07,46,11.30
2014,08,23,07,47,11.30
2014,08,23,07,48,11.30
2014,08,23,07,49,11.40
2014,08,23,07,50,11.40
2014,08,23,07,51,11.50
2014,08,23,07,52,11.50
2014,08,23,07,53,11.60
2014,08,23,07,54,11.60
2014,08,23,07,55,11.60
2014,08,23,07,56,11.70
2014,08,23,07,57,11.70
2014,08,23,07,58,11.70
2014,08,23,07,59,11.80
2014,08,23,08,00,11.80
2014,08,23,08,01,11.80
2014,08,23,08,02,11.90
2014,08,23,08,03,11.90
2014,08,23,08,04,11.90
2014,08,23,08,05,12.00
2014,08,23,08,06,12.00
2014,08,23,08,07,12.10
2014,08,23,08,08,12.10
2014,08,23,08,09,12.20
2014,08,23,08,10,12.20
2014,08,23,08,11,12.30
2014,08,23,08,12,12.30
2014,08,23,08,13,12.30
2014,08,23,08,14,12.40
2014,08,23,08,15,12.40
2014,08,23,08,16,12.50
2014,08,23,08,17,12.60
2014,08,23,08,18,12.60
2014,08,23,08,19,12.70
2014,08,23,08,20,12.80
2014,08,23,08,21,12.90
2014,08,23,08,22,12.90
2014,08,23,08,23,13.00
2014,08,23,08,24,13.10
2014,08,23,08,25,13.20
2014,08,23,08,26,13.40
2014,08,23,08,27,13.50
2014,08,23,08,28,13.60
2014,08,23,08,29,13.80
2014,08,23,08,30,13.90
2014,08,23,08,31,14.00
2014,08,23,08,32,14.20
2014,08,23,08,33,14.30
2014,08,23,08,34,14.40
2014,08,23,08,35,14.60
2014,08,23,08,36,14.70
2014,08,23,08,37,14.80
2014,08,23,08,38,14.80
2014,08,23,08,39,14.90
2014,08,23,08,40,15.00
2014,08,23,08,41,15.10
2014,08,23,08,42,15.10
2014,08,23,08,43,15.20
2014,08,23,08,44,15.20
2014,08,23,08,45,15.30
2014,08,23,08,46,15.30
2014,08,23,08,47,15.40
2014,08,23,08,48,15.40
2014,08,23,08,49,15.50
2014,08,23,08,50,15.60
2014,08,23,08,51,15.60
2014,08,23,08,52,15.70
2014,08,23,08,53,15.80
2014,08,23,08,54,15.90
2014,08,23,08,55,15.90
2014,08,23,08,56,16.00
2014,08,23,08,57,16.10
2014,08,23,08,58,16.20
2014,08,23,08,59,16.30
2014,08,23,09,00,16.40
2014,08,23,09,01,16.50
2014,08,23,09,02,16.60
2014,08,23,09,03,16.70
2014,08,23,09,04,16.80
2014,08,23,09,05,16.80
2014,08,23,09,06,16.90
2014,08,23,09,07,16.90
2014,08,23,09,08,16.90
2014,08,23,09,09,17.00
2014,08,23,09,10,17.00
2014,08,23,09,11,17.10
2014,08,23,09,12,17.10
2014,08,23,09,13,17.10
2014,08,23,09,14,17.20
2014,08,23,09,15,17.20
2014,08,23,09,16,17.20
2014,08,23,09,17,17.20
2014,08,23,09,18,17.20
2014,08,23,09,19,17.20
2014,08,23,09,20,17.20
2014,08,23,09,21,17.20
2014,08,23,09,22,17.20
2014,08,23,09,23,17.20
2014,08,23,09,24,17.20
2014,08,23,09,25,17.20
2014,08,23,09,26,17.30
2014,08,23,09,27,17.40
2014,08,23,09,28,17.50
2014,08,23,09,29,17.50
2014,08,23,09,30,17.60
2014,08,23,09,31,17.60
2014,08,23,09,32,17.70
2014,08,23,09,33,17.70
2014,08,23,09,34,17.80
2014,08,23,09,35,17.70
2014,08,23,09,36,17.70
2014,08,23,09,37,17.70
2014,08,23,09,38,17.70
2014,08,23,09,39,17.70
2014,08,23,09,40,17.70
2014,08,23,09,41,17.70
2014,08,23,09,42,17.70
2014,08,23,09,43,17.70
2014,08,23,09,44,17.70
2014,08,23,09,45,17.60
2014,08,23,09,46,17.60
2014,08,23,09,47,17.60
2014,08,23,09,48,17.60
2014,08,23,09,49,17.70
2014,08,23,09,50,17.70
2014,08,23,09,51,17.70
2014,08,23,09,52,17.80
2014,08,23,09,53,17.80
2014,08,23,09,54,17.80
2014,08,23,09,55,17.90
2014,08,23,09,56,17.90
2014,08,23,09,57,18.00
2014,08,23,09,58,18.00
2014,08,23,09,59,18.10
2014,08,23,10,00,18.10
2014,08,23,10,01,18.10
2014,08,23,10,02,18.10
2014,08,23,10,03,18.10
2014,08,23,10,04,18.10
2014,08,23,10,05,18.10
2014,08,23,10,06,18.10
2014,08,23,10,07,18.10
2014,08,23,10,08,18.10
2014,08,23,10,09,18.00
2014,08,23,10,10,18.00
2014,08,23,10,11,18.00
2014,08,23,10,12,18.00
2014,08,23,10,13,18.00
2014,08,23,10,14,18.00
2014,08,23,10,15,18.00
2014,08,23,10,16,18.00
2014,08,23,10,17,18.10
2014,08,23,10,18,18.10
2014,08,23,10,19,18.20
2014,08,23,10,20,18.30
2014,08,23,10,21,18.40
2014,08,23,10,22,18.50
2014,08,23,10,23,18.60
2014,08,23,10,24,18.70
2014,08,23,10,25,18.70
2014,08,23,10,26,18.80
2014,08,23,10,27,18.90
2014,08,23,10,28,19.00
2014,08,23,10,29,19.10
2014,08,23,10,30,19.20
2014,08,23,10,31,19.20
2014,08,23,10,32,19.30
2014,08,23,10,33,19.40
2014,08,23,10,34,19.40
2014,08,23,10,35,19.50
2014,08,23,10,36,19.60
2014,08,23,10,37,19.60
2014,08,23,10,38,19.60
2014,08,23,10,39,19.60
2014,08,23,10,40,19.50
2014,08,23,10,41,19.40
2014,08,23,10,42,19.40
2014,08,23,10,43,19.30
2014,08,23,10,44,19.30
2014,08,23,10,45,19.30
2014,08,23,10,46,19.30
2014,08,23,10,47,19.30
2014,08,23,10,48,19.40
2014,08,23,10,49,19.50
2014,08,23,10,50,19.50
2014,08,23,10,51,19.60
2014,08,23,10,52,19.70
2014,08,23,10,53,19.80
2014,08,23,10,54,19.90
2014,08,23,10,55,20.00
2014,08,23,10,56,20.10
2014,08,23,10,57,20.20
2014,08,23,10,58,20.20
2014,08,23,10,59,20.20
2014,08,23,11,00,20.20
2014,08,23,11,01,20.10
2014,08,23,11,02,19.90
2014,08,23,11,03,19.80
2014,08,23,11,04,19.70
2014,08,23,11,05,19.70
2014,08,23,11,06,19.70
2014,08,23,11,07,19.70
2014,08,23,11,08,19.70
2014,08,23,11,09,19.60
2014,08,23,11,10,19.60
2014,08,23,11,11,19.50
2014,08,23,11,12,19.40
2014,08,23,11,13,19.40
2014,08,23,11,14,19.30
2014,08,23,11,15,19.30
2014,08,23,11,16,19.30
2014,08,23,11,17,19.40
2014,08,23,11,18,19.40
2014,08,23,11,19,19.40
2014,08,23,11,20,19.50
2014,08,23,11,21,19.60
2014,08,23,11,22,19.60
2014,08,23,11,23,19.70
2014,08,23,11,24,19.80
2014,08,23,11,25,19.80
2014,08,23,11,26,19.80
2014,08,23,11,27,19.80
2014,08,23,11,28,19.80
2014,08,23,11,29,19.80
2014,08,23,11,30,19.80
2014,08,23,11,31,19.80
2014,08,23,11,32,19.80
2014,08,23,11,33,19.80
2014,08,23,11,34,19.80
2014,08,23,11,35,19.90
2014,08,23,11,36,19.90
2014,08,23,11,37,19.90
2014,08,23,11,38,20.00
2014,08,23,11,39,20.00
2014,08,23,11,40,20.10
2014,08,23,11,41,20.00
2014,08,23,11,42,20.00
2014,08,23,11,43,20.00
2014,08,23,11,44,19.90
2014,08,23,11,45,19.90
2014,08,23,11,46,19.90
2014,08,23,11,47,19.90
2014,08,23,11,48,19.90
2014,08,23,11,49,20.00
2014,08,23,11,50,19.90
2014,08,23,11,51,19.90
2014,08,23,11,52,19.80
2014,08,23,11,53,19.80
2014,08,23,11,54,19.70
2014,08,23,11,55,19.70
2014,08,23,11,56,19.70
2014,08,23,11,57,19.70
2014,08,23,11,58,19.70
2014,08,23,11,59,19.80
2014,08,23,12,00,19.90
2014,08,23,12,01,20.10
2014,08,23,12,02,20.20
2014,08,23,12,03,20.40
2014,08,23,12,04,20.60
2014,08,23,12,05,20.80
2014,08,23,12,06,20.90
2014,08,23,12,07,21.10
2014,08,23,12,08,21.30
2014,08,23,12,09,21.40
2014,08,23,12,10,21.40
2014,08,23,12,11,21.30
2014,08,23,12,12,21.20
2014,08,23,12,13,21.10
2014,08,23,12,14,21.00
2014,08,23,12,15,20.90
2014,08,23,12,16,20.80
2014,08,23,12,17,20.70
2014,08,23,12,18,20.70
2014,08,23,12,19,20.60
2014,08,23,12,20,20.60
2014,08,23,12,21,20.60
2014,08,23,12,22,20.60
2014,08,23,12,23,20.70
2014,08,23,12,24,20.70
2014,08,23,12,25,20.80
2014,08,23,12,26,20.90
2014,08,23,12,27,21.00
2014,08,23,12,28,21.10
2014,08,23,12,29,21.10
2014,08,23,12,30,21.10
2014,08,23,12,31,21.20
2014,08,23,12,32,21.20
2014,08,23,12,33,21.10
2014,08,23,12,34,21.10
2014,08,23,12,35,21.00
2014,08,23,12,36,21.00
2014,08,23,12,37,21.00
2014,08,23,12,38,21.00
2014,08,23,12,39,21.10
2014,08,23,12,40,21.10
2014,08,23,12,41,21.10
2014,08,23,12,42,21.20
2014,08,23,12,43,21.20
2014,08,23,12,44,21.20
2014,08,23,12,45,21.30
2014,08,23,12,46,21.30
2014,08,23,12,47,21.30
2014,08,23,12,48,21.40
2014,08,23,12,49,21.40
2014,08,23,12,50,21.50
2014,08,23,12,51,21.50
2014,08,23,12,52,21.60
2014,08,23,12,53,21.70
2014,08,23,12,54,21.80
2014,08,23,12,55,22.00
2014,08,23,12,56,22.10
2014,08,23,12,57,22.20
2014,08,23,12,58,22.30
2014,08,23,12,59,22.30
2014,08,23,13,00,22.30
2014,08,23,13,01,22.30
2014,08,23,13,02,22.30
2014,08,23,13,03,22.30
2014,08,23,13,04,22.20
2014,08,23,13,05,22.20
2014,08,23,13,06,22.20
2014,08,23,13,07,22.20
2014,08,23,13,08,22.20
2014,08,23,13,09,22.10
2014,08,23,13,10,22.10
2014,08,23,13,11,22.10
2014,08,23,13,12,22.10
2014,08,23,13,13,22.10
2014,08,23,13,14,22.10
2014,08,23,13,15,22.00
2014,08,23,13,16,22.10
2014,08,23,13,17,22.10
2014,08,23,13,18,22.10
2014,08,23,13,19,22.20
2014,08,23,13,20,22.30
2014,08,23,13,21,22.40
2014,08,23,13,22,22.40
2014,08,23,13,23,22.50
2014,08,23,13,24,22.50
2014,08,23,13,25,22.60
2014,08,23,13,26,22.60
2014,08,23,13,27,22.60
2014,08,23,13,28,22.70
2014,08,23,13,29,22.80
2014,08,23,13,30,22.80
2014,08,23,13,31,22.80
2014,08,23,13,32,22.80
2014,08,23,13,33,22.80
2014,08,23,13,34,22.80
2014,08,23,13,35,22.80
2014,08,23,13,36,22.80
2014,08,23,13,37,22.80
2014,08,23,13,38,22.90
2014,08,23,13,39,22.90
2014,08,23,13,40,23.00
2014,08,23,13,41,23.00
2014,08,23,13,42,23.00
2014,08,23,13,43,23.10
2014,08,23,13,44,23.10
2014,08,23,13,45,23.20
2014,08,23,13,46,23.20
2014,08,23,13,47,23.20
2014,08,23,13,48,23.20
2014,08,23,13,49,23.20
2014,08,23,13,50,23.30
2014,08,23,13,51,23.30
2014,08,23,13,52,23.40
2014,08,23,13,53,23.50
2014,08,23,13,54,23.60
2014,08,23,13,55,23.70
2014,08,23,13,56,23.90
2014,08,23,13,57,24.00
2014,08,23,13,58,24.10
2014,08,23,13,59,24.30
2014,08,23,14,00,24.30
2014,08,23,14,01,24.40
2014,08,23,14,02,24.60
2014,08,23,14,03,24.70
2014,08,23,14,04,24.80
2014,08,23,14,05,24.90
2014,08,23,14,06,25.00
2014,08,23,14,07,25.00
2014,08,23,14,08,25.10
2014,08,23,14,09,25.10
2014,08,23,14,10,25.10
2014,08,23,14,11,25.00
2014,08,23,14,12,25.00
2014,08,23,14,13,24.90
2014,08,23,14,14,24.80
2014,08,23,14,15,24.70
2014,08,23,14,16,24.70
2014,08,23,14,17,24.60
2014,08,23,14,18,24.60
2014,08,23,14,19,24.60
2014,08,23,14,20,24.50
2014,08,23,14,21,24.50
2014,08,23,14,22,24.40
2014,08,23,14,23,24.40
2014,08,23,14,24,24.30
2014,08,23,14,25,24.30
2014,08,23,14,26,24.30
2014,08,23,14,27,24.30
2014,08,23,14,28,24.30
2014,08,23,14,29,24.30
2014,08,23,14,30,24.30
2014,08,23,14,31,24.30
2014,08,23,14,32,24.30
2014,08,23,14,33,24.40
2014,08,23,14,34,24.50
2014,08,23,14,35,24.60
2014,08,23,14,36,24.70
2014,08,23,14,37,24.80
2014,08,23,14,38,24.90
2014,08,23,14,39,25.00
2014,08,23,14,40,25.00
2014,08,23,14,41,25.10
2014,08,23,14,42,25.10
2014,08,23,14,43,25.10
2014,08,23,14,44,25.20
2014,08,23,14,45,25.20
2014,08,23,14,46,25.30
2014,08,23,14,47,25.30
2014,08,23,14,48,25.40
2014,08,23,14,49,25.40
2014,08,23,14,50,25.50
2014,08,23,14,51,25.40
2014,08,23,14,52,25.40
2014,08,23,14,53,25.50
2014,08,23,14,54,25.50
2014,08,23,14,55,25.60
2014,08,23,14,56,25.50
2014,08,23,14,57,25.50
2014,08,23,14,58,25.50
2014,08,23,14,59,25.50
2014,08,23,15,00,25.50
2014,08,23,15,01,25.60
2014,08,23,15,02,25.70
2014,08,23,15,03,25.80
2014,08,23,15,04,25.80
2014,08,23,15,05,25.80
2014,08,23,15,06,25.80
2014,08,23,15,07,25.80
2014,08,23,15,08,25.80
2014,08,23,15,09,25.80
2014,08,23,15,10,25.80
2014,08,23,15,11,25.80
2014,08,23,15,12,25.80
2014,08,23,15,13,25.80
2014,08,23,15,14,25.80
2014,08,23,15,15,25.80
2014,08,23,15,16,25.60
2014,08,23,15,17,25.30
2014,08,23,15,18,25.00
2014,08,23,15,19,24.70
2014,08,23,15,20,24.50
2014,08,23,15,21,24.50
2014,08,23,15,22,24.40
2014,08,23,15,23,24.40
2014,08,23,15,24,24.30
2014,08,23,15,25,24.30
2014,08,23,15,26,24.30
2014,08,23,15,27,24.30
2014,08,23,15,28,24.20
2014,08,23,15,29,24.10
2014,08,23,15,30,24.00
2014,08,23,15,31,24.00
2014,08,23,15,32,23.90
2014,08,23,15,33,23.80
2014,08,23,15,34,23.60
2014,08,23,15,35,23.50
2014,08,23,15,36,23.50
2014,08,23,15,37,23.40
2014,08,23,15,38,23.40
2014,08,23,15,39,23.40
2014,08,23,15,40,23.50
2014,08,23,15,41,23.50
2014,08,23,15,42,23.50
2014,08,23,15,43,23.60
2014,08,23,15,44,23.60
2014,08,23,15,45,23.70
2014,08,23,15,46,23.80
2014,08,23,15,47,23.90
2014,08,23,15,48,23.90
2014,08,23,15,49,23.90
2014,08,23,15,50,23.90
2014,08,23,15,51,23.80
2014,08,23,15,52,23.70
2014,08,23,15,53,23.70
2014,08,23,15,54,23.60
2014,08,23,15,55,23.60
2014,08,23,15,56,23.60
2014,08,23,15,57,23.60
2014,08,23,15,58,23.70
2014,08,23,15,59,23.70
2014,08,23,16,00,23.80
2014,08,23,16,01,23.80
2014,08,23,16,02,23.80
2014,08,23,16,03,23.80
2014,08,23,16,04,23.90
2014,08,23,16,05,23.90
2014,08,23,16,06,24.00
2014,08,23,16,07,24.10
2014,08,23,16,08,24.10
2014,08,23,16,09,24.20
2014,08,23,16,10,24.30
2014,08,23,16,11,24.40
2014,08,23,16,12,24.50
2014,08,23,16,13,24.60
2014,08,23,16,14,24.70
2014,08,23,16,15,24.70
2014,08,23,16,16,24.70
2014,08,23,16,17,24.70
2014,08,23,16,18,24.70
2014,08,23,16,19,24.80
2014,08,23,16,20,24.80
2014,08,23,16,21,24.80
2014,08,23,16,22,24.90
2014,08,23,16,23,24.90
2014,08,23,16,24,24.80
2014,08,23,16,25,24.80
2014,08,23,16,26,24.90
2014,08,23,16,27,24.90
2014,08,23,16,28,25.00
2014,08,23,16,29,25.10
2014,08,23,16,30,25.20
2014,08,23,16,31,25.20
2014,08,23,16,32,25.30
2014,08,23,16,33,25.40
2014,08,23,16,34,25.40
2014,08,23,16,35,25.40
2014,08,23,16,36,25.50
2014,08,23,16,37,25.60
2014,08,23,16,38,25.60
2014,08,23,16,39,25.70
2014,08,23,16,40,25.80
2014,08,23,16,41,25.80
2014,08,23,16,42,25.90
2014,08,23,16,43,26.00
2014,08,23,16,44,26.00
2014,08,23,16,45,26.10
2014,08,23,16,46,26.20
2014,08,23,16,47,26.20
2014,08,23,16,48,26.20
2014,08,23,16,49,26.20
2014,08,23,16,50,26.20
2014,08,23,16,51,26.20
2014,08,23,16,52,26.10
2014,08,23,16,53,26.10
2014,08,23,16,54,26.00
2014,08,23,16,55,25.80
2014,08,23,16,56,25.70
2014,08,23,16,57,25.50
2014,08,23,16,58,25.40
2014,08,23,16,59,25.20
2014,08,23,17,00,25.20
2014,08,23,17,01,25.10
2014,08,23,17,02,25.00
2014,08,23,17,03,25.00
2014,08,23,17,04,24.90
2014,08,23,17,05,24.80
2014,08,23,17,06,24.80
2014,08,23,17,07,24.80
2014,08,23,17,08,24.80
2014,08,23,17,09,24.80
2014,08,23,17,10,24.80
2014,08,23,17,11,24.80
2014,08,23,17,12,24.80
2014,08,23,17,13,24.80
2014,08,23,17,14,24.80
2014,08,23,17,15,24.80
2014,08,23,17,16,24.80
2014,08,23,17,17,24.80
2014,08,23,17,18,24.80
2014,08,23,17,19,24.90
2014,08,23,17,20,24.90
2014,08,23,17,21,25.00
2014,08,23,17,22,25.00